This is the latest recevied weather packets stored in our database for station/object KE8RXN. If no packets are shown the sender has not sent any weather packets the latest 10 day(s).
| Time | Temp. | Humidity | Pressure | Rain* | Wind** | Luminosity | Snow |
|---|---|---|---|---|---|---|---|
| 1777989137 | 10° C | 57% | 1010.8 hPa | 0 mm | - | 241 W/m² | - |
| 1777988833 | 9.44° C | 57% | 1010.6 hPa | 0 mm | - | 350 W/m² | - |
| 1777988530 | 10° C | 59% | 1010.6 hPa | 0 mm | - | 199 W/m² | - |
| 1777988227 | 10° C | 60% | 1010.4 hPa | 0 mm | - | 230 W/m² | - |
| 1777987923 | 10° C | 61% | 1011.1 hPa | 0 mm | - | 248 W/m² | - |
| 1777987619 | 9.44° C | 62% | 1010.7 hPa | 0 mm | - | 331 W/m² | - |
| 1777987317 | 8.89° C | 65% | 1011 hPa | 0 mm | - | 167 W/m² | - |
| 1777987014 | 8.89° C | 70% | 1010.7 hPa | 0 mm | - | 177 W/m² | - |
| 1777986711 | 8.89° C | 69% | 1010.4 hPa | 0 mm | - | 119 W/m² | - |
| 1777986409 | 8.89° C | 68% | 1010.5 hPa | 0 mm | - | 136 W/m² | - |
| 1777986108 | 8.89° C | 71% | 1010.5 hPa | 0 mm | - | 121 W/m² | - |
| 1777985803 | 8.89° C | 75% | 1010.5 hPa | 0 mm | - | 130 W/m² | - |
| 1777985500 | 8.89° C | 75% | 1010.5 hPa | 0 mm | - | 123 W/m² | - |
| 1777985191 | 8.89° C | 76% | 1010.2 hPa | 0 mm | - | 89 W/m² | - |
| 1777984888 | 8.89° C | 76% | 1010 hPa | 0 mm | - | 38 W/m² | - |
| 1777984584 | 8.89° C | 77% | 1010 hPa | 0 mm | - | 66 W/m² | - |
| 1777984281 | 8.89° C | 77% | 1010 hPa | 0 mm | - | 56 W/m² | - |
| 1777983978 | 8.89° C | 77% | 1009.3 hPa | 0 mm | - | 134 W/m² | - |
| 1777983675 | 8.89° C | 77% | 1009.1 hPa | 0 mm | - | 96 W/m² | - |
| 1777983371 | 8.89° C | 77% | 1009 hPa | 0 mm | - | 58 W/m² | - |
| 1777983068 | 8.89° C | 77% | 1008.9 hPa | 0 mm | - | 49 W/m² | - |
| 1777982764 | 8.89° C | 76% | 1009 hPa | 0 mm | - | 42 W/m² | - |
| 1777982460 | 8.89° C | 76% | 1009 hPa | 0 mm | - | 25 W/m² | - |
| 1777982154 | 8.89° C | 75% | 1008.7 hPa | 0 mm | - | 45 W/m² | - |
| 1777981851 | 8.89° C | 75% | 1009 hPa | 0 mm | - | 69 W/m² | - |
* Rain latest hour (hover to see other rain measurements)
** Current wind speed in m/s (hover to see current wind gust speed)